Glasgow, MT

6:09 AM MDT on May 23, 2017 (GMT -0600)
Wokal-Glasgow International

Weather History for KGGW - June, 2014

Change the Weather History Date:

Sunday, June 8, 2014

  Actual Average Record
Temperature  
Mean Temperature 58 °F 62 °F  
Max Temperature 76 °F 74 °F 97 °F (1988)
Min Temperature 39 °F 50 °F 29 °F (1937)
Degree Days  
Heating Degree Days 7 5  
Month to date heating degree days 46 44  
Since 1 June heating degree days 46 44  
Since 1 July heating degree days 8854 8375  
Cooling Degree Days 0 2  
Month to date cooling degree days 2 12  
Year to date cooling degree days 36 29  
Since 1 June cooling degree days 2 12  
Growing Degree Days 8 (Base 50)    
Moisture  
Dew Point 37 °F    
Average Humidity 57    
Maximum Humidity 93    
Minimum Humidity 20    
Precipitation  
Precipitation 0.00 in 0.08 in 1.69 in (1950)
Month to date precipitation 0.20 0.69  
Year to date precipitation 3.59 4.51  
Snow  
Snow 0.00 in 0.00 in 1.30 in (1950)
Month to date snowfall 0.0 0.0  
Since 1 June snowfall 0.0 0.0  
Since 1 July snowfall 30.4 34.8  
Snow Depth 0.00 in    
Sea Level Pressure  
Sea Level Pressure 30.05 in    
Wind  
Wind Speed 9 mph (NNW)    
Max Wind Speed 20 mph    
Max Gust Speed 24 mph    
Visibility 10 miles    
Events      
T = Trace of Precipitation, MM = Missing Value Source: NWS Daily Summary

Daily Weather History Graph

Daily Weather History Graph

Search for Another Location

Airport or City:

Trip Planner

Search our weather history database for the weather conditions in past years. The results will help you decide how hot, cold, wet, or windy it might be!

Date:

Astronomy

Jun. 08, 2014 Rise Set
Actual Time 5:06 AM MDT 9:04 PM MDT
Civil Twilight 4:25 AM MDT 9:45 PM MDT
Nautical Twilight 3:29 AM MDT 10:42 PM MDT
Astronomical Twilight 1:57 AM MDT 12:16 AM MDT
Moon 4:06 PM MDT (6/8) 2:23 AM MDT (6/8)
Length of Visible Light 17h 19m
Length of Day
15h 58m
Waxing Gibbous, 77% of the Moon is Illuminated
Jun 8
Waxing Gibbous
Jun 12
Full
Jun 19
Last Quarter
Jun 27
New
Jul 5
First Quarter

Hourly Weather History & Observations

Time (MDT) Temp. Windchill Dew Point Humidity Pressure Visibility Wind Dir Wind Speed Gust Speed Precip Events Conditions
12:53 AM 46.0 °F 41.4 °F 42.1 °F 86% 30.06 in 10.0 mi NE 9.2 mph - N/A   Clear
1:53 AM 46.0 °F 41.4 °F 39.9 °F 79% 30.05 in 10.0 mi NE 9.2 mph - N/A   Clear
2:53 AM 42.1 °F - 39.9 °F 92% 30.07 in 10.0 mi Calm Calm - N/A   Clear
3:53 AM 43.0 °F 39.5 °F 39.9 °F 89% 30.07 in 10.0 mi WNW 5.8 mph - N/A   Clear
4:53 AM 41.0 °F 35.8 °F 39.0 °F 93% 30.08 in 10.0 mi NNW 8.1 mph - N/A   Clear
5:53 AM 41.0 °F 35.8 °F 37.9 °F 89% 30.09 in 10.0 mi NNW 8.1 mph - N/A   Clear
6:53 AM 45.0 °F 41.8 °F 39.9 °F 82% 30.09 in 10.0 mi NW 5.8 mph - N/A   Clear
7:53 AM 52.0 °F - 42.1 °F 69% 30.11 in 10.0 mi NW 9.2 mph - N/A   Clear
8:53 AM 59.0 °F - 41.0 °F 51% 30.11 in 10.0 mi NW 6.9 mph - N/A   Clear
9:53 AM 64.0 °F - 36.0 °F 35% 30.10 in 10.0 mi NW 9.2 mph - N/A   Clear
10:53 AM 66.0 °F - 36.0 °F 33% 30.09 in 10.0 mi Variable 6.9 mph - N/A   Clear
11:53 AM 68.0 °F - 36.0 °F 31% 30.08 in 10.0 mi Variable 6.9 mph 16.1 mph N/A   Clear
12:53 PM 70.0 °F - 34.0 °F 27% 30.07 in 10.0 mi Variable 5.8 mph - N/A   Clear
1:53 PM 71.6 °F - 33.8 °F 25% 30.05 in 10.0 mi SW 10.4 mph - N/A   Clear
2:53 PM 71.1 °F - 32.0 °F 24% 30.04 in 10.0 mi West 6.9 mph - N/A   Clear
3:53 PM 73.0 °F - 30.9 °F 21% 30.02 in 10.0 mi WSW 12.7 mph - N/A   Partly Cloudy
4:53 PM 73.0 °F - 32.0 °F 22% 30.01 in 10.0 mi Variable 4.6 mph - N/A   Scattered Clouds
5:53 PM 73.9 °F - 30.9 °F 21% 29.99 in 10.0 mi NW 9.2 mph - N/A   Clear
6:53 PM 73.0 °F - 30.0 °F 20% 29.99 in 10.0 mi Calm Calm - N/A   Mostly Cloudy
7:53 PM 66.0 °F - 37.9 °F 36% 29.99 in 10.0 mi NE 17.3 mph - N/A   Mostly Cloudy
8:53 PM 59.0 °F - 39.9 °F 49% 29.99 in 10.0 mi East 11.5 mph - N/A   Clear
9:53 PM 55.0 °F - 41.0 °F 59% 30.01 in 10.0 mi East 13.8 mph - N/A   Clear
10:53 PM 53.1 °F - 44.1 °F 71% 30.00 in 10.0 mi East 15.0 mph - N/A   Mostly Cloudy
11:53 PM 53.1 °F - 44.1 °F 71% 29.99 in 10.0 mi East 17.3 mph - N/A   Partly Cloudy